Regional Weather Roundup
Issued by NWS

Home | Current Version | Previous Version | Graphics & Text | Print | Product List | Glossary On
Versions: 1 2 3 4 5 6 7 8 9 10 11 12 13 14 15 16 17 18 19 20 21 22 23 24 25 26 27 28 29 30 31 32 33 34 35 36 37 38 39 40 41 42 43 44 45 46 47 48 49 50
326
ASUS45 KPSR 241610
RWRAZ

ARIZONA HOURLY REGIONAL WEATHER ROUNDUP
NATIONAL WEATHER SERVICE PHOENIX AZ
900 AM MST TUE APR 24 2018

NOTE: FAIR INDICATES FEW OR NO CLOUDS BELOW 12,000 FEET WITH NO
SIGNIFICANT WEATHER AND/OR OBSTRUCTIONS TO VISIBILITY.

AZZ001>003-036-241700-
NORTHWEST ARIZONA

CITY           SKY/WX    TMP DP  RH WIND       PRES   REMARKS
BULLHEAD CITY  SUNNY     81  27  13 CALM      29.93S
KINGMAN        SUNNY     77  26  15 CALM      30.06S
$$

AZZ004>008-015-016-018-241700-
NORTH CENTRAL ARIZONA

CITY           SKY/WX    TMP DP  RH WIND       PRES   REMARKS
GRAND CANYON   SUNNY     64  19  17 VRB7      30.23S
WILLIAMS       SUNNY     64  18  16 NW7       30.22R
PRESCOTT       MOSUNNY   71  22  15 N3        30.15F
FLAGSTAFF      MOSUNNY   64  19  17 VRB3      30.24S
PAYSON         SUNNY     72  18  13 VRB3      30.16S
PAGE           SUNNY     68  28  22 N6        30.11S
$$

AZZ009>014-017-241700-
NORTHEAST ARIZONA

CITY           SKY/WX    TMP DP  RH WIND       PRES   REMARKS
WINSLOW        SUNNY     70  23  17 E5        30.15S
SAINT JOHNS    SUNNY     68  23  18 VRB3      30.18S
WINDOW ROCK    SUNNY     63  15  15 CALM      30.22F
SHOW LOW       MOSUNNY   66  18  15 CALM      30.24S
$$

AZZ540-542>544-546-548-241700-
GREATER PHOENIX AREA

CITY           SKY/WX    TMP DP  RH WIND       PRES   REMARKS
PHOENIX        MOSUNNY   79  30  16 SE3       29.95S
BUCKEYE        SUNNY     79  39  24 SE6       29.96S
GLENDALE       MOSUNNY   79  34  19 CALM      29.98R
DEER VALLEY    SUNNY     79  26  14 CALM      29.97S
SCOTTSDALE     SUNNY     80  35  19 VRB3      29.98S
MESA-FALCON    PTSUNNY   82  28  14 VRB6      29.98S
MESA-GATEWAY   MOSUNNY   79  30  17 S5        29.98F
CHANDLER       MOSUNNY   77  32  19 CALM      29.97S
$$

AZZ539-553-241700-
SOUTHWEST MARICOPA COUNTY AND PINAL COUNTY

CITY           SKY/WX    TMP DP  RH WIND       PRES   REMARKS
CASA GRANDE    SUNNY     78  31  17 SE3       29.99S
$$

AZZ503-504-507>509-241700-
SOUTHEAST ARIZONA

CITY           SKY/WX    TMP DP  RH WIND       PRES   REMARKS
TUCSON         SUNNY     76  26  15 S5        30.05F
RYAN FIELD     SUNNY     75  30  19 SE3       30.05S
NOGALES        SUNNY     73  26  17 CALM      30.10S
SIERRA VISTA   SUNNY     74  18  12 E6        30.16R
DOUGLAS        SUNNY     74  22  14 CALM      30.13S
SAFFORD        SUNNY     73  19  13 CALM      30.06S
$$

AZZ532-241700-
SOUTHWEST ARIZONA

CITY           SKY/WX    TMP DP  RH WIND       PRES   REMARKS
YUMA           MOSUNNY   79  37  22 VRB3      29.92R
$$

CAZ041-043-047-048-061-525>527-560>570-241700-
SOUTHERN CALIFORNIA

CITY           SKY/WX    TMP DP  RH WIND       PRES   REMARKS
DOWNTOWN L.A.  NOT AVBL
L.A. AIRPORT   CLOUDY    58  51  78 NE6       30.02F FOG
SAN DIEGO      CLOUDY    59  53  80 NW3       30.04
BURBANK        SUNNY     58  53  84 S3        30.00F
ONTARIO        CLOUDY    62  50  64 CALM      30.01F
RIVERSIDE      MOSUNNY   62  48  60 CALM      30.01F
PALM SPRINGS   SUNNY     82  35  18 CALM      29.93S
EL CENTRO NAS  MOSUNNY   80  40  23 SE7       29.91S
IMPERIAL       SUNNY     81  38  21 SE3       29.90R
BLYTHE         SUNNY     79  35  20 SE5       29.91S
NEEDLES        SUNNY     84  26  12 NE3       29.94R
$$

NVZ020-UTZ003-241700-
SOUTHERN NEVADA-UTAH

CITY           SKY/WX    TMP DP  RH WIND       PRES   REMARKS
LAS VEGAS      MOSUNNY   77  24  14 E6        30.04R
SALT LAKE CITY MOSUNNY   54  35  48 W8        30.30S
$$

NMZ009-TXZ055-241700-
NEW MEXICO-WEST TEXAS

CITY           SKY/WX    TMP DP  RH WIND       PRES   REMARKS
ALBUQUERQUE    PTSUNNY   65  22  19 NW5       30.16R
EL PASO        MOSUNNY   74  28  18 S9        30.09S
$$


........................KEY........................
SKY/WX - SKY CONDITION/WEATHER
TMP    - TEMPERATURE IN FAHRENHEIT
DP     - DEW POINT IN FAHRENHEIT
RH     - RELATIVE HUMIDITY IN PERCENT
WIND   - DIRECTION AND SPEED IN MILES PER HOUR (MPH)
VRB    - VARIABLE WIND DIRECTION
PRES   - MEAN SEA LEVEL PRESSURE IN INCHES OF MERCURY
         F - FALLING PRESSURE   R - RISING PRESSURE
         S - STEADY PRESSURE
VSB    - VISIBILITY IN MILES
HX     - HEAT INDEX IN FAHRENHEIT
WCI    - WIND CHILL INDEX IN FAHRENHEIT
TC     - TEMPERATURE IN CELSIUS WHICH IS ALSO KNOWN AS
         TEMPERATURE IN CENTIGRADE
AFB    - AIR FORCE BASE
         LUKE AFB IS LUKE AIR FORCE BASE
         DAVIS-MONTHAN IS DAVIS-MONTHAN AIR FORCE BASE
NAS    - NAVAL AIR STATION
         EL CENTRO NAS IS EL CENTRO NAVAL AIR STATION
N/A    - NOT AVAILABLE





USA.gov is the U.S. government's official web portal to all federal, state and local government web resources and services.